Location: Ormoy
(49.1954°N, 2.9594°E)
Time: 09:15:28
(UTC+00:00)

Daily predictions for brighter satellites

Satellite Brightness Start Highest point End
(mag) Time Altitude Azimuth Time Altitude Azimuth Time Altitude Azimuth
PAYLOAD B 4.2 17:54:25 10° SSE 17:59:55 76° ENE 18:05:26 10° NNW
Cosmos 1140 Rocket 4.4 17:54:57 10° SW 17:59:58 54° WNW 18:05:02 10° NNE
Cosmos 468 Rocket 4.0 17:55:48 10° NNW 18:00:58 75° ENE 18:06:08 10° SSE
Okean O Rocket 2.2 17:57:09 10° SE 18:01:10 37° ENE 18:05:12 10° N
Cosmos 2297 Rocket 3.3 17:56:22 10° NW 18:01:50 51° WSW 18:07:17 10° S
Cosmos 1980 Rocket 2.9 18:00:05 10° SSE 18:04:58 31° ESE 18:09:53 10° NE
ATLAS 2AS CENTAUR R/B 4.2 18:00:26 10° W 18:07:23 36° NNW 18:14:02 10° NE
ASTEX 1 3.5 18:03:12 10° NNE 18:08:08 58° E 18:13:02 10° S
SKYMED 3 4.4 18:04:52 10° NNE 18:09:01 74° ESE 18:13:06 10° S
NOSS 2-2 (C) 4.4 18:04:13 10° NW 18:09:03 78° SW 18:15:55 10° SE
Cosmos 2369 4.2 18:05:09 10° S 18:10:21 37° ESE 18:15:34 10° NE
Cosmos 1626 2.1 18:07:25 10° N 18:11:03 87° W 18:14:41 10° S
USA 229 DEB 4.0 18:06:04 10° NW 18:13:25 87° NE 18:21:18 10° SE
USA 229 4.0 18:06:10 10° NW 18:13:30 86° NE 18:21:23 10° SE
Cosmos 540 Rocket 3.4 18:10:41 10° NNW 18:15:49 73° ENE 18:20:55 10° SSE
Cosmos 1674 Rocket 4.1 18:14:31 10° N 18:18:38 37° ENE 18:22:45 10° SE
YAOGAN 1 2.6 18:15:09 10° SSE 18:19:25 65° ENE 18:23:44 10° N
SKYMED 2 3.9 18:15:25 10° N 18:19:46 74° WNW 18:24:06 10° SSW
Cosmos 1850 Rocket 4.5 18:17:55 10° S 18:22:41 38° ESE 18:27:32 10° NE
SL-16 R/B 3.8 18:20:49 10° ESE 18:22:46 12° E 18:24:44 10° ENE
Cosmos 841 Rocket 3.6 18:17:48 10° NNW 18:22:57 57° ENE 18:28:00 10° SE
SL-4 R/B 2.5 18:18:34 10° WNW 18:22:58 65° N 18:27:05 13° E
Cosmos 1437 Rocket 4.5 18:24:58 13° E 18:24:58 13° E 18:26:35 10° ENE
OBJECT-B 1.8 18:25:24 16° E 18:26:18 19° ENE 18:28:14 10° NNE
Cosmos 1954 Rocket 4.2 18:24:38 10° SSW 18:29:48 74° WNW 18:35:00 10° NNE
Cosmos 1844 Rocket 4.3 18:26:59 10° N 18:31:01 19° NE 18:34:20 12° ENE
Cosmos 1763 Rocket 4.3 18:26:52 10° NNW 18:31:48 54° WSW 18:36:44 10° S
Meteor 2-10 4.3 18:26:54 10° S 18:32:22 51° E 18:37:43 10° NNE
Cosmos 2279 Rocket 4.0 18:26:05 10° N 18:32:22 87° ENE 18:38:39 10° S
H-2A R/B 4.2 18:32:30 13° ENE 18:33:22 14° ENE 18:35:20 10° NNE
ISS -3.8 18:31:01 10° WNW 18:34:23 82° NNE 18:36:41 19° ESE
Cosmos 2180 Rocket 4.5 18:29:13 10° N 18:35:27 73° E 18:41:44 10° SSE
Cosmos 2221 Rocket 3.6 18:31:03 10° N 18:35:35 73° E 18:40:07 10° SSE
Cosmos 2219 4.2 18:32:30 10° NW 18:38:03 50° WSW 18:43:34 10° S
SL-14 R/B 3.2 18:35:56 10° N 18:39:53 70° E 18:43:50 10° SSE
Aureole 1 4.1 18:38:24 10° SSW 18:41:25 88° E 18:44:48 10° NNE
Meteor 2-5 Rocket 4.4 18:37:30 10° N 18:42:29 33° ENE 18:46:13 16° ESE
IRIDIUM 104 4.4 18:37:38 10° SSE 18:42:40 52° E 18:47:44 10° NNE
Resurs 01 Rocket 3.3 18:42:04 15° ENE 18:42:58 16° ENE 18:45:34 10° NNE
HJ-1C 3.4 18:40:13 10° S 18:43:19 71° WSW 18:46:27 10° NNW
Cosmos 2360 4.5 18:41:23 10° SW 18:47:05 74° WNW 18:52:51 10° NNE
NOSS 7 (H) 4.4 18:44:15 10° NW 18:47:25 71° NE 18:50:04 19° SE
Cosmos 1805 3.1 18:44:04 10° S 18:47:56 86° E 18:51:51 10° N
Cosmos 1378 Rocket 3.5 18:44:11 10° N 18:48:37 72° E 18:52:57 10° SSE
Cosmos 2263 Rocket 2.2 18:43:10 10° NNW 18:48:52 72° ENE 18:54:19 11° SE
Cosmos 1741 Rocket 4.0 18:45:42 10° S 18:50:54 61° ESE 18:56:06 10° NNE
USA 186 2.3 18:49:21 23° SE 18:50:54 39° ENE 18:54:00 10° N
USA 215 3.8 18:45:23 10° ENE 18:51:45 56° NNW 18:58:06 10° W
IRIDIUM 114 4.3 18:46:39 10° SSE 18:51:47 62° E 18:56:57 10° N
IGS 5A 3.8 18:53:35 19° SE 18:56:10 44° ENE 19:00:07 10° N
Cosmos 2082 4.2 18:52:04 10° NNW 18:57:44 62° WSW 19:03:22 10° SSE
Cosmos 1733 Rocket 3.4 18:55:35 10° SSW 18:59:59 70° W 19:04:27 10° N
Cosmos 1766 3.2 18:56:35 10° S 19:00:24 57° E 19:04:18 10° NNE
IRIDIUM 103 4.2 18:55:44 10° S 19:00:55 74° E 19:06:09 10° N
Meteor 2-14 Rocket 4.3 18:55:08 10° S 19:01:11 78° E 19:07:16 10° NNE
Cosmos 1242 Rocket 3.4 18:59:16 10° SSW 19:02:45 51° WNW 19:06:15 10° N
Cosmos 1814 Rocket 4.0 18:58:11 10° NNW 19:03:27 64° ENE 19:07:02 20° SE
Okean-O 2.8 19:00:42 21° SE 19:03:28 50° ENE 19:07:45 10° N
Cosmos 1726 1.9 19:02:02 10° S 19:05:41 85° E 19:09:21 10° N
Resurs 1-3 3.9 19:05:38 28° ESE 19:07:30 44° ENE 19:11:41 10° N
Cosmos 1697 Rocket 3.6 19:03:30 10° SW 19:08:58 52° NW 19:14:30 10° NNE
CSL-04 Debris 4.1 19:06:21 10° SSE 19:11:45 76° ENE 19:17:10 10° NNW
Cosmos 2084 3.3 19:11:26 10° SW 19:15:15 70° NW 19:18:22 15° NE
IRS-1C Rocket 4.1 19:12:10 19° SSE 19:15:52 65° ENE 19:21:05 10° N
USA-17 4.4 19:12:43 10° NW 19:15:54 71° NE 19:16:45 48° ESE
Meteor 2-21 Rocket 4.3 19:11:01 10° S 19:17:02 73° E 19:23:05 10° NNE
IRIDIUM 106 4.4 19:14:00 10° S 19:19:13 79° W 19:24:29 10° N
Cosmos 489 Rocket 4.4 19:16:27 10° S 19:22:43 67° ESE 19:29:00 10° NNE
SPOT 1/Viking Rocket 4.1 19:22:41 33° E 19:23:39 36° ENE 19:28:20 10° N
Cosmos 1470 3.6 19:28:31 34° NE 19:28:31 34° NE 19:31:00 10° NNE
CZ-4 R/B 3.1 19:25:10 10° SSW 19:28:59 34° W 19:32:50 10° NNW
CRYOSAT 2 4.2 19:29:50 25° SSE 19:32:44 75° E 19:37:38 10° N
Cosmos 2285 Rocket 4.0 19:26:36 10° NNW 19:32:58 86° WSW 19:37:15 22° SSE
MINOTAUR IV R/B 4.4 19:28:56 10° SSW 19:33:28 82° ESE 19:37:59 10° NNE
Meteor 2-16 Rocket 4.3 19:28:46 10° S 19:34:53 83° E 19:41:05 10° N
Gbstr 26 Del rocket 4.5 19:27:28 10° SW 19:35:07 66° SSE 19:40:02 26° ENE
Meteor 1-12 Rocket 4.3 19:29:09 10° S 19:35:08 87° W 19:41:13 10° NNE
deb Chang Zheng 4 3.4 19:35:01 57° E 19:35:14 58° ENE 19:39:19 10° N
Okean O Rocket 3.7 19:33:56 10° SSW 19:37:35 26° W 19:41:18 10° NW
SJ-6B 3.2 19:37:27 31° SSW 19:39:01 59° W 19:42:45 10° NNW
BREEZE M DEB (TANK) 3.9 19:34:47 10° SW 19:38:08 23° S 19:38:08 23° S
Cosmos 2322 Rocket 4.3 19:43:56 12° NE 19:43:56 12° NE 19:44:24 10° NE
Cosmos 2026 Rocket 3.9 19:33:37 10° S 19:39:34 62° E 19:45:32 10° NNE
BREEZE-M DEB (TANK) 4.3 19:37:40 10° W 19:39:50 24° SSW 19:39:57 23° SSW
JB-3 4.2 19:37:19 10° NNE 19:41:26 81° ESE 19:42:18 54° S
CSL-04 Rocket 3.8 19:38:43 17° S 19:42:54 70° WSW 19:48:18 10° NNW
Cosmos 1553 Rocket 4.3 19:37:02 10° N 19:43:09 48° ENE 19:44:28 42° ESE
Cosmos 1908 Rocket 3.8 19:38:58 10° SSW 19:43:17 69° WNW 19:47:37 10° N
Nadezhda 4 Rocket 4.4 19:39:57 10° SSW 19:46:14 65° WNW 19:52:32 10° N
MetOp-A 3.5 19:48:59 61° NNE 19:48:59 61° NNE 19:52:20 10° N
Cosmos 1980 Rocket 3.1 19:43:18 10° SW 19:48:46 50° NW 19:54:15 10° NNE
Cosmos 968 Rocket 3.3 19:45:23 10° SSW 19:50:36 71° ESE 19:55:51 10° NNE
Cosmos 1782 Rocket 3.4 19:50:50 78° ENE 19:50:50 78° ENE 19:55:05 10° NNE
Landsat 5 4.3 19:50:04 10° N 19:54:29 57° WNW 19:58:52 10° SSW
OBJECT-B 3.1 19:56:15 16° W 19:56:21 16° W 19:58:07 10° NW
Meteor 1-24 Rocket 3.6 19:53:15 10° NNW 19:58:35 76° W 20:00:31 40° S
Landsat 7 4.0 19:58:02 42° SSW 19:59:31 67° WSW 20:04:14 10° NNW
ATLAS 2AS CENTAUR R/B 4.4 19:54:26 10° NW 20:00:28 26° N 20:05:21 13° NE
Cosmos 1437 Rocket 3.3 20:00:08 51° WSW 20:00:32 55° WNW 20:04:13 10° N
Spot 2 4.2 20:01:39 60° N 20:01:39 60° N 20:05:12 10° NNW
Cosmos 2278 4.0 19:56:21 10° SW 20:02:00 67° WNW 20:07:41 10° NNE
Ariane Rocket 3.4 20:02:33 46° NE 20:02:33 46° NE 20:06:55 10° N
SL-4 R/B 2.4 19:58:04 10° WNW 20:02:29 68° SW 20:02:29 68° SW
SL-16 R/B 2.0 20:00:11 10° SSW 20:05:49 71° ESE 20:11:29 10° NNE
Cosmos 1570 Rocket 4.4 20:02:01 10° NNW 20:07:12 58° WSW 20:08:41 42° SSW
H-2A R/B 2.9 20:08:59 56° NW 20:08:59 56° NW 20:12:12 10° NNW
Meteor 1-22 Rocket 4.2 20:03:44 10° SSW 20:09:05 75° WNW 20:14:42 10° N
ISS -1.4 20:08:00 10° W 20:09:34 20° WSW 20:09:34 20° WSW
MOS 1 4.1 20:10:30 66° SSE 20:11:21 87° ENE 20:17:03 10° NNW
Cosmos 1025 Rocket 3.4 20:11:03 10° NNW 20:14:56 60° WNW 20:14:56 60° WNW
Cosmos 1844 Rocket 2.6 20:10:12 10° NNW 20:15:54 76° ENE 20:16:00 75° ENE
Cosmos 2278 Rocket 4.0 20:13:28 10° N 20:17:22 19° NE 20:17:26 19° NE
Resurs 01 Rocket 2.0 20:19:37 60° NW 20:19:37 60° NW 20:23:21 10° NNW
Cosmos 1975 Rocket 3.7 20:16:32 10° NNW 20:20:46 54° W 20:20:46 54° W
Terra 3.7 20:23:49 19° NNE 20:23:49 19° NNE 20:25:42 10° N
Cosmos 1092 Rocket 4.4 20:15:59 10° SSW 20:22:14 61° WNW 20:28:28 10° N
SPOT 5 4.3 20:32:25 30° NNE 20:32:25 30° NNE 20:35:04 10° N
Cosmos 2263 Rocket 4.3 20:28:03 10° NW 20:32:13 21° W 20:36:03 11° SW
USA 215 4.0 20:31:46 33° NE 20:34:10 45° N 20:40:20 10° WNW
Cosmos 1844 3.7 20:28:41 10° NNW 20:33:42 73° NNW 20:33:42 73° NNW
BREEZE-M DEB (TANK) 4.5 20:21:44 10° W 20:36:35 57° SSW 20:37:07 56° S
S3M 4.1 20:45:21 10° N 20:50:54 71° N 20:50:54 71° N
USA 281 3.3 21:06:58 68° N 21:06:58 68° N 21:12:42 10° NNW
Cosmos 2322 Rocket 3.7 21:25:40 30° N 21:25:40 30° N 21:28:45 10° NNE
SL-16 R/B 4.1 21:45:44 10° W 21:50:28 26° NW 21:55:14 10° NNE
ATLAS 2AS CENTAUR R/B 3.8 21:46:45 10° NW 21:52:45 37° NNE 21:52:45 37° NNE
Terra 4.4 22:02:43 17° NNW 22:02:43 17° NNW 22:03:52 10° NNW
Cosmos 2278 Rocket 4.0 21:56:49 10° NNW 21:59:16 26° NNW 21:59:16 26° NNW
USA 215 4.3 22:19:06 39° NW 22:19:06 39° NW 22:23:08 10° WNW
Cosmos 1943 Rocket 4.4 22:12:08 10° NNW 22:14:00 20° N 22:14:00 20° N
